Location: Diebersbach
(48.5163°N, 8.0558°E)
Time: 10:36:29
(UTC+00:00)

FALCON 9 DEB - Pass Details

Date: 20 June 2021
Orbit: 358 x 373 km, 53.0° (Epoch: 03 August)

Event Time Altitude Azimuth Distance (km) Brightness Sun altitude
Rises 02:28:17 0° 293° (WNW) 2,252 6.6 -7.7°
Reaches altitude 10° 02:30:24 10° 287° (WNW) 1,394 5.5 -7.5°
Maximum altitude 02:33:22 42° 215° (SW) 554 3.2 -7.1°
Drops below altitude 10° 02:36:18 10° 142° (SE) 1,376 5.6 -6.8°
Sets 02:38:22 0° 135° (SE) 2,218 6.7 -6.6°
